Time,TemperatureF,DewpointF,PressureIn,WindDirection,WindDirectionDegrees,WindSpeedMPH,WindSpeedGustMPH,Humidity,HourlyPrecipIn,Conditions,Clouds,dailyrainin,SoftwareType,DateUTC
2013-06-15 00:06:00,62.8,58.5,29.93,North,-999,0.0,0.0,86,0.00,,,0.05,pywws,2013-06-15 04:06:00,
2013-06-15 00:36:00,62.8,58.5,29.93,North,-999,0.0,0.0,86,0.00,,,0.00,pywws,2013-06-15 04:36:00,
2013-06-15 00:38:00,62.6,58.0,29.93,North,-999,0.0,0.0,85,0.00,,,0.00,pywws,2013-06-15 04:38:00,
2013-06-15 00:43:00,62.6,58.0,29.92,North,-999,0.0,0.0,85,0.00,,,0.00,pywws,2013-06-15 04:43:00,
2013-06-15 00:48:00,62.4,58.2,29.93,North,-999,0.0,0.0,86,0.00,,,0.00,pywws,2013-06-15 04:48:00,
2013-06-15 00:53:00,62.2,58.0,29.93,North,-999,0.0,0.0,86,0.00,,,0.00,pywws,2013-06-15 04:53:00,
2013-06-15 01:06:00,62.2,58.3,29.93,North,-999,0.0,0.0,87,0.00,,,0.00,pywws,2013-06-15 05:06:00,
2013-06-15 01:36:00,63.3,58.7,29.93,North,-999,0.0,0.0,85,0.00,,,0.00,pywws,2013-06-15 05:36:00,
2013-06-15 01:38:00,63.5,58.6,29.93,North,-999,0.0,0.0,84,0.00,,,0.00,pywws,2013-06-15 05:38:00,
2013-06-15 01:43:00,63.5,58.6,29.93,North,-999,0.0,0.7,84,0.00,,,0.00,pywws,2013-06-15 05:43:00,
2013-06-15 01:48:00,63.7,58.4,29.93,North,-999,0.0,0.7,83,0.00,,,0.00,pywws,2013-06-15 05:48:00,
2013-06-15 01:53:00,63.9,58.6,29.93,North,-999,0.0,0.0,83,0.00,,,0.00,pywws,2013-06-15 05:53:00,
2013-06-15 02:06:00,63.9,58.6,29.93,North,-999,0.0,0.7,83,0.00,,,0.00,pywws,2013-06-15 06:06:00,
2013-06-15 02:36:00,63.9,58.3,29.93,North,-999,0.0,0.0,82,0.00,,,0.00,pywws,2013-06-15 06:36:00,
2013-06-15 02:38:00,63.9,58.3,29.94,North,-999,0.0,0.0,82,0.00,,,0.00,pywws,2013-06-15 06:38:00,
2013-06-15 02:43:00,64.0,58.4,29.93,North,-999,0.0,1.6,82,0.00,,,0.00,pywws,2013-06-15 06:43:00,
2013-06-15 02:48:00,64.0,58.4,29.93,North,-999,0.0,0.0,82,0.00,,,0.00,pywws,2013-06-15 06:48:00,
2013-06-15 02:53:00,63.9,58.3,29.93,North,-999,0.0,0.0,82,0.00,,,0.00,pywws,2013-06-15 06:53:00,
2013-06-15 03:06:00,63.5,57.9,29.93,North,-999,0.0,0.0,82,0.00,,,0.00,pywws,2013-06-15 07:06:00,
2013-06-15 03:36:00,61.3,57.4,29.94,North,-999,0.0,0.0,87,0.00,,,0.00,pywws,2013-06-15 07:36:00,
2013-06-15 03:38:00,61.2,57.6,29.93,North,-999,0.0,0.0,88,0.00,,,0.00,pywws,2013-06-15 07:38:00,
2013-06-15 03:43:00,61.0,57.4,29.94,North,-999,0.0,0.0,88,0.00,,,0.00,pywws,2013-06-15 07:43:00,
2013-06-15 03:48:00,61.0,57.7,29.94,North,-999,0.0,0.0,89,0.00,,,0.00,pywws,2013-06-15 07:48:00,
2013-06-15 03:53:00,61.0,57.7,29.95,North,-999,0.0,0.0,89,0.00,,,0.00,pywws,2013-06-15 07:53:00,
2013-06-15 04:06:00,60.8,57.5,29.94,North,-999,0.0,0.0,89,0.00,,,0.00,pywws,2013-06-15 08:06:00,
2013-06-15 04:36:00,60.3,58.2,29.94,North,-999,0.0,0.0,93,0.00,,,0.00,pywws,2013-06-15 08:36:00,
2013-06-15 04:38:00,60.1,58.0,29.93,North,-999,0.0,0.0,93,0.00,,,0.00,pywws,2013-06-15 08:38:00,
2013-06-15 04:43:00,59.9,57.9,29.94,North,-999,0.0,0.0,93,0.00,,,0.00,pywws,2013-06-15 08:43:00,
2013-06-15 04:48:00,59.7,57.7,29.94,North,-999,0.0,0.0,93,0.00,,,0.00,pywws,2013-06-15 08:48:00,
2013-06-15 04:53:00,59.7,58.0,29.94,North,-999,0.0,0.0,94,0.00,,,0.00,pywws,2013-06-15 08:53:00,
2013-06-15 05:06:00,59.7,58.0,29.94,North,-999,0.0,0.0,94,0.00,,,0.00,pywws,2013-06-15 09:06:00,
2013-06-15 05:36:00,58.8,57.7,29.95,North,-999,0.0,0.0,96,0.00,,,0.00,pywws,2013-06-15 09:36:00,
2013-06-15 05:38:00,58.8,57.7,29.96,North,-999,0.0,0.0,96,0.00,,,0.00,pywws,2013-06-15 09:38:00,
2013-06-15 05:43:00,58.6,57.5,29.96,North,-999,0.0,0.0,96,0.00,,,0.00,pywws,2013-06-15 09:43:00,
2013-06-15 05:48:00,58.5,57.3,29.97,North,-999,0.0,0.0,96,0.00,,,0.00,pywws,2013-06-15 09:48:00,
2013-06-15 05:53:00,58.3,57.4,29.96,North,-999,0.0,0.0,97,0.00,,,0.00,pywws,2013-06-15 09:53:00,
2013-06-15 06:06:00,58.3,57.4,29.97,North,-999,0.0,0.0,97,0.00,,,0.00,pywws,2013-06-15 10:06:00,
2013-06-15 06:36:00,59.2,58.0,29.99,North,-999,0.0,0.0,96,0.00,,,0.00,pywws,2013-06-15 10:36:00,
2013-06-15 06:38:00,59.4,58.5,29.99,North,-999,0.0,0.0,97,0.00,,,0.00,pywws,2013-06-15 10:38:00,
2013-06-15 06:43:00,59.4,58.5,29.99,North,-999,0.0,0.0,97,0.00,,,0.00,pywws,2013-06-15 10:43:00,
2013-06-15 06:48:00,59.7,58.9,29.99,North,-999,0.0,0.0,97,0.00,,,0.00,pywws,2013-06-15 10:48:00,
2013-06-15 06:53:00,60.1,59.2,30.00,North,-999,0.0,0.0,97,0.00,,,0.00,pywws,2013-06-15 10:53:00,
2013-06-15 07:06:00,60.3,59.4,30.00,North,-999,0.0,0.7,97,0.00,,,0.00,pywws,2013-06-15 11:06:00,
2013-06-15 07:36:00,64.4,60.8,30.01,North,-999,0.0,0.7,88,0.00,,,0.00,pywws,2013-06-15 11:36:00,
2013-06-15 07:38:00,64.9,61.0,30.01,North,-999,0.0,0.0,87,0.00,,,0.00,pywws,2013-06-15 11:38:00,
2013-06-15 07:43:00,65.5,61.2,30.01,North,-999,0.0,1.6,86,0.00,,,0.00,pywws,2013-06-15 11:43:00,
2013-06-15 07:48:00,66.0,61.4,30.01,North,-999,0.0,0.0,85,0.00,,,0.00,pywws,2013-06-15 11:48:00,
2013-06-15 07:53:00,66.4,61.1,30.02,NW,315,0.7,1.6,83,0.00,,,0.00,pywws,2013-06-15 11:53:00,
2013-06-15 08:06:00,66.9,60.9,30.02,North,-999,0.0,3.1,81,0.00,,,0.00,pywws,2013-06-15 12:06:00,
2013-06-15 08:36:00,68.9,61.0,30.02,NW,315,2.2,3.1,76,0.00,,,0.00,pywws,2013-06-15 12:36:00,
2013-06-15 08:38:00,69.3,61.0,30.02,NE,45,1.6,2.2,75,0.00,,,0.00,pywws,2013-06-15 12:38:00,
2013-06-15 08:43:00,69.6,61.0,30.02,North,-999,0.0,1.6,74,0.00,,,0.00,pywws,2013-06-15 12:43:00,
2013-06-15 08:48:00,70.0,60.9,30.02,North,-999,0.0,0.7,73,0.00,,,0.00,pywws,2013-06-15 12:48:00,
2013-06-15 08:53:00,70.3,61.3,30.03,West,270,0.7,2.2,73,0.00,,,0.00,pywws,2013-06-15 12:53:00,
2013-06-15 09:06:00,70.7,61.2,30.03,North,-999,0.0,0.7,72,0.00,,,0.00,pywws,2013-06-15 13:06:00,
2013-06-15 09:36:00,72.9,60.4,30.03,North,0,0.7,2.2,65,0.00,,,0.00,pywws,2013-06-15 13:36:00,
2013-06-15 09:38:00,73.0,59.7,30.03,North,0,0.7,2.2,63,0.00,,,0.00,pywws,2013-06-15 13:38:00,
2013-06-15 09:43:00,73.6,60.2,30.03,North,0,0.7,1.6,63,0.00,,,0.00,pywws,2013-06-15 13:43:00,
2013-06-15 09:48:00,73.9,60.1,30.03,West,270,0.7,2.2,62,0.00,,,0.00,pywws,2013-06-15 13:48:00,
2013-06-15 09:53:00,73.9,60.1,30.02,South,180,0.7,1.6,62,0.00,,,0.00,pywws,2013-06-15 13:53:00,
2013-06-15 10:06:00,74.1,60.3,30.03,North,-999,0.0,0.7,62,0.00,,,0.00,pywws,2013-06-15 14:06:00,
2013-06-15 10:36:00,76.3,60.4,30.02,South,180,3.1,4.5,58,0.00,,,0.00,pywws,2013-06-15 14:36:00,
2013-06-15 10:38:00,76.6,61.2,30.02,SW,225,1.6,3.1,59,0.00,,,0.00,pywws,2013-06-15 14:38:00,
2013-06-15 10:43:00,76.6,59.7,30.02,SW,225,1.6,3.1,56,0.00,,,0.00,pywws,2013-06-15 14:43:00,
2013-06-15 10:48:00,76.8,59.9,30.01,South,180,3.1,4.5,56,0.00,,,0.00,pywws,2013-06-15 14:48:00,
2013-06-15 10:53:00,77.2,59.7,30.01,North,-999,0.0,0.7,55,0.00,,,0.00,pywws,2013-06-15 14:53:00,
2013-06-15 11:06:00,77.2,59.2,30.01,SW,225,2.2,3.8,54,0.00,,,0.00,pywws,2013-06-15 15:06:00,
2013-06-15 11:36:00,79.2,61.1,30.01,South,180,2.2,4.5,54,0.00,,,0.00,pywws,2013-06-15 15:36:00,
2013-06-15 11:38:00,80.1,61.4,30.01,SW,225,2.2,4.5,53,0.00,,,0.00,pywws,2013-06-15 15:38:00,
2013-06-15 11:43:00,80.6,61.3,30.00,NE,45,0.7,1.6,52,0.00,,,0.00,pywws,2013-06-15 15:43:00,
2013-06-15 11:48:00,81.1,61.3,30.01,SW,225,2.2,4.5,51,0.00,,,0.00,pywws,2013-06-15 15:48:00,
2013-06-15 11:53:00,81.1,60.1,30.01,NW,315,4.5,5.4,49,0.00,,,0.00,pywws,2013-06-15 15:53:00,
2013-06-15 12:06:00,81.9,59.0,30.01,WNW,292,1.6,3.1,46,0.00,,,0.00,pywws,2013-06-15 16:06:00,
2013-06-15 12:36:00,84.0,61.0,30.01,NW,315,0.7,2.2,46,0.00,,,0.00,pywws,2013-06-15 16:36:00,
2013-06-15 12:38:00,84.7,60.4,30.01,SW,225,1.6,3.1,44,0.00,,,0.00,pywws,2013-06-15 16:38:00,
2013-06-15 12:43:00,84.2,60.5,30.01,ESE,112,1.6,3.8,45,0.00,,,0.00,pywws,2013-06-15 16:43:00,
2013-06-15 12:48:00,84.2,60.5,30.00,ESE,112,1.6,3.8,45,0.00,,,0.00,pywws,2013-06-15 16:48:00,
2013-06-15 12:53:00,85.1,60.7,30.00,NW,315,0.7,2.2,44,0.00,,,0.00,pywws,2013-06-15 16:53:00,
2013-06-15 13:06:00,86.0,61.5,30.00,NW,315,2.2,6.0,44,0.00,,,0.00,pywws,2013-06-15 17:06:00,
2013-06-15 13:36:00,84.7,60.4,29.98,SW,225,1.6,3.1,44,0.00,,,0.00,pywws,2013-06-15 17:36:00,
2013-06-15 13:38:00,85.6,60.5,29.98,North,0,2.2,3.1,43,0.00,,,0.00,pywws,2013-06-15 17:38:00,
2013-06-15 13:43:00,86.2,60.4,29.98,North,0,3.1,5.4,42,0.00,,,0.00,pywws,2013-06-15 17:43:00,
2013-06-15 13:48:00,86.2,56.8,29.98,SW,225,1.6,3.1,37,0.00,,,0.00,pywws,2013-06-15 17:48:00,
2013-06-15 13:53:00,86.5,56.4,29.98,North,-999,0.0,2.2,36,0.00,,,0.00,pywws,2013-06-15 17:53:00,
2013-06-15 14:06:00,86.5,58.6,29.98,SW,225,3.8,5.4,39,0.00,,,0.00,pywws,2013-06-15 18:06:00,
2013-06-15 14:36:00,86.5,56.4,29.97,NW,315,2.2,3.8,36,0.00,,,0.00,pywws,2013-06-15 18:36:00,
2013-06-15 14:38:00,87.1,56.1,29.97,NW,315,0.7,1.6,35,0.00,,,0.00,pywws,2013-06-15 18:38:00,
2013-06-15 14:43:00,87.4,57.9,29.97,NW,315,2.2,3.8,37,0.00,,,0.00,pywws,2013-06-15 18:43:00,
2013-06-15 14:48:00,87.4,57.9,29.97,NW,315,2.2,3.8,37,0.00,,,0.00,pywws,2013-06-15 18:48:00,
2013-06-15 14:53:00,87.4,57.2,29.96,NW,315,2.2,3.8,36,0.00,,,0.00,pywws,2013-06-15 18:53:00,
2013-06-15 15:06:00,87.8,58.2,29.96,WNW,292,1.6,4.5,37,0.00,,,0.00,pywws,2013-06-15 19:06:00,
2013-06-15 15:36:00,88.2,59.3,29.97,NW,315,1.6,3.1,38,0.00,,,0.00,pywws,2013-06-15 19:36:00,
2013-06-15 15:38:00,88.2,57.8,29.97,SW,225,3.1,6.0,36,0.00,,,0.00,pywws,2013-06-15 19:38:00,
2013-06-15 15:43:00,87.1,57.6,29.96,NW,315,2.2,6.0,37,0.00,,,0.00,pywws,2013-06-15 19:43:00,
2013-06-15 15:48:00,86.0,55.9,29.96,NW,315,2.2,3.8,36,0.00,,,0.00,pywws,2013-06-15 19:48:00,
2013-06-15 15:53:00,86.5,57.9,29.96,North,0,0.7,1.6,38,0.00,,,0.00,pywws,2013-06-15 19:53:00,
2013-06-15 16:06:00,87.1,58.4,29.96,North,0,1.6,3.1,38,0.00,,,0.00,pywws,2013-06-15 20:06:00,
2013-06-15 16:36:00,89.1,57.8,29.96,SE,135,2.2,5.4,35,0.00,,,0.00,pywws,2013-06-15 20:36:00,
2013-06-15 16:38:00,88.2,57.8,29.96,NW,315,1.6,2.2,36,0.00,,,0.00,pywws,2013-06-15 20:38:00,
2013-06-15 16:43:00,88.0,58.4,29.96,NW,315,0.7,3.1,37,0.00,,,0.00,pywws,2013-06-15 20:43:00,
2013-06-15 16:48:00,88.9,58.4,29.96,West,270,1.6,4.5,36,0.00,,,0.00,pywws,2013-06-15 20:48:00,
2013-06-15 16:53:00,89.4,58.9,29.96,NW,315,1.6,3.1,36,0.00,,,0.00,pywws,2013-06-15 20:53:00,
2013-06-15 17:06:00,88.7,58.3,29.96,East,90,0.7,2.2,36,0.00,,,0.00,pywws,2013-06-15 21:06:00,
2013-06-15 17:36:00,88.2,60.0,29.95,NE,45,0.7,1.6,39,0.00,,,0.00,pywws,2013-06-15 21:36:00,
2013-06-15 17:38:00,88.0,59.2,29.95,North,-999,0.0,1.6,38,0.00,,,0.00,pywws,2013-06-15 21:38:00,
2013-06-15 17:43:00,87.6,61.0,29.95,North,0,0.7,1.6,41,0.00,,,0.00,pywws,2013-06-15 21:43:00,
2013-06-15 17:48:00,88.2,60.8,29.95,SE,135,1.6,3.1,40,0.00,,,0.00,pywws,2013-06-15 21:48:00,
2013-06-15 17:53:00,88.5,61.1,29.95,NW,315,1.6,3.1,40,0.00,,,0.00,pywws,2013-06-15 21:53:00,
2013-06-15 18:06:00,88.7,58.3,29.95,North,0,0.7,1.6,36,0.00,,,0.00,pywws,2013-06-15 22:06:00,
2013-06-15 18:36:00,86.5,55.6,29.95,West,270,2.2,4.5,35,0.00,,,0.00,pywws,2013-06-15 22:36:00,
2013-06-15 18:38:00,86.0,55.9,29.95,North,-999,0.0,0.7,36,0.00,,,0.00,pywws,2013-06-15 22:38:00,
2013-06-15 18:43:00,85.6,56.3,29.95,NE,45,1.6,3.1,37,0.00,,,0.00,pywws,2013-06-15 22:43:00,
2013-06-15 18:48:00,85.6,57.1,29.95,North,-999,0.0,2.2,38,0.00,,,0.00,pywws,2013-06-15 22:48:00,
2013-06-15 18:53:00,84.7,55.5,29.95,SE,135,0.7,2.2,37,0.00,,,0.00,pywws,2013-06-15 22:53:00,
2013-06-15 19:06:00,83.1,54.9,29.95,SW,225,0.7,3.1,38,0.00,,,0.00,pywws,2013-06-15 23:06:00,
2013-06-15 19:36:00,78.1,57.9,29.96,North,-999,0.0,0.0,50,0.00,,,0.00,pywws,2013-06-15 23:36:00,
2013-06-15 19:38:00,77.2,57.1,29.96,North,-999,0.0,0.0,50,0.00,,,0.00,pywws,2013-06-15 23:38:00,
2013-06-15 19:43:00,76.3,57.3,29.96,North,-999,0.0,0.0,52,0.00,,,0.00,pywws,2013-06-15 23:43:00,
2013-06-15 19:48:00,75.6,57.7,29.96,North,-999,0.0,0.0,54,0.00,,,0.00,pywws,2013-06-15 23:48:00,
2013-06-15 19:53:00,74.8,58.6,29.96,North,-999,0.0,0.0,57,0.00,,,0.00,pywws,2013-06-15 23:53:00,
2013-06-15 20:06:00,74.1,59.3,29.96,North,-999,0.0,0.0,60,0.00,,,0.00,pywws,2013-06-16 00:06:00,
2013-06-15 20:36:00,70.9,58.5,29.97,North,-999,0.0,0.0,65,0.00,,,0.00,pywws,2013-06-16 00:36:00,
2013-06-15 20:38:00,70.3,58.9,29.96,North,-999,0.0,0.0,67,0.00,,,0.00,pywws,2013-06-16 00:38:00,
2013-06-15 20:43:00,70.0,59.3,29.96,North,-999,0.0,0.0,69,0.00,,,0.00,pywws,2013-06-16 00:43:00,
2013-06-15 20:48:00,69.6,59.0,29.96,North,-999,0.0,0.0,69,0.00,,,0.00,pywws,2013-06-16 00:48:00,
2013-06-15 20:53:00,69.3,58.6,29.96,North,-999,0.0,0.0,69,0.00,,,0.00,pywws,2013-06-16 00:53:00,
2013-06-15 21:06:00,68.9,58.7,29.96,North,-999,0.0,0.0,70,0.00,,,0.00,pywws,2013-06-16 01:06:00,
2013-06-15 21:36:00,66.4,58.6,29.97,North,-999,0.0,0.0,76,0.00,,,0.00,pywws,2013-06-16 01:36:00,
2013-06-15 21:38:00,66.2,58.4,29.97,North,-999,0.0,0.0,76,0.00,,,0.00,pywws,2013-06-16 01:38:00,
2013-06-15 21:43:00,66.0,59.0,29.98,North,-999,0.0,0.0,78,0.00,,,0.00,pywws,2013-06-16 01:43:00,
2013-06-15 21:48:00,66.0,59.0,29.98,North,-999,0.0,0.0,78,0.00,,,0.00,pywws,2013-06-16 01:48:00,
2013-06-15 21:53:00,66.0,59.3,29.98,North,-999,0.0,0.0,79,0.00,,,0.00,pywws,2013-06-16 01:53:00,
2013-06-15 22:06:00,65.8,59.5,29.98,North,-999,0.0,0.0,80,0.00,,,0.00,pywws,2013-06-16 02:06:00,
2013-06-15 22:36:00,64.6,59.3,29.98,North,-999,0.0,0.0,83,0.00,,,0.00,pywws,2013-06-16 02:36:00,
2013-06-15 22:38:00,64.4,59.5,29.98,North,-999,0.0,0.0,84,0.00,,,0.00,pywws,2013-06-16 02:38:00,
2013-06-15 22:43:00,64.2,58.9,29.98,North,-999,0.0,0.0,83,0.00,,,0.00,pywws,2013-06-16 02:43:00,
2013-06-15 22:48:00,64.2,59.3,29.98,North,-999,0.0,0.0,84,0.00,,,0.00,pywws,2013-06-16 02:48:00,
2013-06-15 22:53:00,64.2,59.6,29.98,North,-999,0.0,0.0,85,0.00,,,0.00,pywws,2013-06-16 02:53:00,
2013-06-15 23:06:00,64.2,59.6,29.98,North,-999,0.0,0.0,85,0.00,,,0.00,pywws,2013-06-16 03:06:00,
2013-06-15 23:36:00,63.7,59.7,29.98,North,-999,0.0,0.0,87,0.00,,,0.00,pywws,2013-06-16 03:36:00,
2013-06-15 23:38:00,63.5,59.9,29.98,North,-999,0.0,0.0,88,0.00,,,0.00,pywws,2013-06-16 03:38:00,
2013-06-15 23:43:00,63.5,59.9,29.98,North,-999,0.0,0.0,88,0.00,,,0.00,pywws,2013-06-16 03:43:00,
2013-06-15 23:48:00,63.3,60.0,29.98,North,-999,0.0,0.0,89,0.00,,,0.00,pywws,2013-06-16 03:48:00,
2013-06-15 23:53:00,63.1,59.8,29.98,North,-999,0.0,0.0,89,0.00,,,0.00,pywws,2013-06-16 03:53:00,